AO-07 1 07530U 74089B 21280.85174194 -.00000049 00000-0 -20301-4 0 9990 2 07530 101.8690 255.2887 0012171 164.7462 264.0607 12.53650626146058 UO-11 1 14781U 84021B 21280.77958137 .00000257 00000-0 37389-4 0 9994 2 14781 97.5999 275.1277 0009933 75.0415 285.1899 14.83336624 23588 LO-19 1 20442U 90005G 21280.48444217 .00000016 00000-0 22608-4 0 9992 2 20442 98.7544 237.0357 0011510 186.5784 173.5250 14.32999999656874 HUBBLE 1 20580U 90037B 21280.77208021 .00000992 00000-0 48916-4 0 9996 2 20580 28.4707 41.8371 0002559 187.8386 296.6382 15.09767402528250 MET-2/21 1 22782U 93055A 21280.37802404 .00000084 00000-0 62524-4 0 9999 2 22782 82.5514 215.0761 0022030 341.3436 138.3408 13.83839866419007 AO-27 1 22825U 93061C 21280.88008692 .00000008 00000-0 21061-4 0 9994 2 22825 98.9139 301.2337 0009444 70.2897 289.9302 14.30126528462325 IO-26 1 22826U 93061D 21280.61397594 .00000012 00000-0 22492-4 0 9992 2 22826 98.9082 300.8597 0009876 59.2840 300.9313 14.30467006462516 FO-29 1 24278U 96046B 21280.76896586 .00000002 00000-0 39425-4 0 9995 2 24278 98.5548 333.8058 0349698 218.4957 139.0765 13.53106642241682 NOAA-15 1 25338U 98030A 21280.83857027 .00000028 00000-0 30100-4 0 9992 2 25338 98.6744 308.3159 0009555 318.0618 41.9830 14.26061758217264 GO-32 1 25397U 98043D 21280.85153070 .00000006 00000-0 22381-4 0 9998 2 25397 98.7810 226.1427 0002296 103.7606 256.3827 14.23717362207702 ISS 1 25544U 98067A 21280.62619082 .00003101 00000-0 64553-4 0 9999 2 25544 51.6449 146.7621 0004169 66.2503 337.6571 15.48944939306029 NO-44 1 26931U 01043C 21280.59340900 .00000007 00000-0 34351-4 0 9999 2 26931 67.0531 351.0257 0005517 271.2935 88.7534 14.30635557 45390 SO-50 1 27607U 02058C 21280.58637543 .00000135 00000-0 39782-4 0 9993 2 27607 64.5570 355.4353 0054617 348.3923 11.5916 14.75798594 11266 CO-55 1 27844U 03031E 21280.89107359 .00000092 00000-0 61155-4 0 9990 2 27844 98.6822 287.4054 0010918 111.1331 249.1015 14.22337879948001 CO-57 1 27848U 03031J 21280.84744933 .00000069 00000-0 51097-4 0 9992 2 27848 98.6875 287.9193 0010679 123.5697 236.6501 14.21911281947811 RS-22 1 27939U 03042A 21280.85466734 .00000288 00000-0 60179-4 0 9990 2 27939 98.1569 57.2676 0011669 287.0248 72.9689 14.67033441964000 NOAA-18 1 28654U 05018A 21280.78126479 .00000096 00000-0 76358-4 0 9994 2 28654 98.9831 346.0335 0013578 328.4784 31.5573 14.12644418844396 CO-58 1 28895U 05043F 21280.31399855 .00000325 00000-0 70970-4 0 9997 2 28895 98.0746 51.2081 0016053 214.3874 145.6291 14.63972335850609 Falconsat-3 1 30776U 07006E 21280.67724798 .00009155 00000-0 20932-3 0 9998 2 30776 35.4331 98.3514 0002569 239.5964 120.4511 15.42092006810433 CO-65 1 32785U 08021C 21280.44027220 .00000632 00000-0 73068-4 0 9999 2 32785 97.6242 255.0129 0012893 359.4147 0.7054 14.88827486728837 AAUSAT2 1 32788U 08021F 21280.48069285 .00001030 00000-0 97175-4 0 9991 2 32788 97.5137 270.4991 0009941 252.3732 107.6404 14.95811702730607 DO-64 1 32789U 08021G 21280.66144443 .00003060 00000-0 19420-3 0 9993 2 32789 97.3674 311.6913 0013218 114.1484 246.1129 15.09534517733850 CO-66 1 32791U 08021J 21280.40116156 .00000805 00000-0 85553-4 0 9993 2 32791 97.5828 260.7709 0012087 319.3730 40.6587 14.91559094729463 RS-30 1 32953U 08025A 21280.74325189 .00000021 00000-0 80971-4 0 9991 2 32953 82.5076 341.1035 0020653 93.2127 267.1315 12.43104862606939 PRISM 1 33493U 09002B 21280.89715811 .00001250 00000-0 11146-3 0 9990 2 33493 98.2014 248.9502 0013873 276.8305 83.1337 14.97924169691161 NOAA-19 1 33591U 09005A 21280.89698149 .00000026 00000-0 39093-4 0 9998 2 33591 99.1781 304.3609 0014069 173.3614 186.7745 14.12499272652796 SRMSAT 1 37841U 11058D 21280.52934328 .00000326 00000-0 34013-4 0 9993 2 37841 19.9733 343.6816 0012048 84.8077 303.4370 14.10706128515705 HRBE 1 37855U 11061F 21280.55533056 .00004067 00000-0 19835-3 0 9998 2 37855 101.7213 262.1892 0165264 97.0630 264.9408 15.08252893543079 RS-40 1 38735U 12041C 21280.51223432 .00000021 00000-0 79546-4 0 9997 2 38735 82.4752 63.2099 0016888 199.4411 160.6026 12.42583432417103 ZACUBE-1 1 39417U 13066B 21280.76531690 .00000488 00000-0 66660-4 0 9998 2 39417 97.6051 259.3443 0059160 151.6151 208.8307 14.81614732425708 Delfi-N3xt 1 39428U 13066N 21280.74325555 .00001294 00000-0 21010-3 0 9994 2 39428 97.7878 221.5463 0119901 6.0100 354.2511 14.68152533421629 GOMX-1 1 39430U 13066Q 21280.74987269 .00000361 00000-0 73279-4 0 9992 2 39430 97.8098 197.3614 0151440 120.8682 240.7525 14.59685981419426 LO-74 1 39440U 13066AA 21280.49042862 .00000454 00000-0 69457-4 0 9992 2 39440 97.6898 244.3841 0078415 231.4757 127.9406 14.76339834422958 AO-73 1 39444U 13066AE 21280.68002810 .00000625 00000-0 81758-4 0 9994 2 39444 97.5950 261.6456 0058409 141.7264 218.8119 14.82541777424659 SPROUT 1 39770U 14029E 21280.73419756 .00001897 00000-0 20898-3 0 9992 2 39770 97.9245 31.9809 0008362 191.8476 168.2539 14.88713722400044 DTUSAT-2 1 40030U 14033W 21280.77749877 .00000653 00000-0 75182-4 0 9998 2 40030 97.9170 208.0068 0012153 158.5942 201.5785 14.89104856396543 EO-80 1 40032U 14033Y 21280.74380681 .00000741 00000-0 84557-4 0 9995 2 40032 97.9177 207.9817 0012061 159.7577 200.4121 14.89065579396525 HODOYOSHI-1 1 40299U 14070B 21280.78820491 .00001760 00000-0 73239-4 0 9990 2 40299 97.2771 351.2886 0011655 317.3858 181.4810 15.25004631384538 FIREBIRD FU3 1 40377U 15003B 21280.51492899 .00008964 00000-0 31563-3 0 9998 2 40377 99.1131 85.4044 0115281 156.8017 203.8478 15.23465158369851 FIREBIRD FU4 1 40378U 15003C 21280.42177526 .00009449 00000-0 33181-3 0 9993 2 40378 99.1136 85.4513 0115318 156.9088 203.7386 15.23523039369836 GRIFEX 1 40379U 15003D 21280.36620962 .00006885 00000-0 27230-3 0 9993 2 40379 99.1111 73.7119 0126268 192.1641 167.6532 15.18781836369178 NO-84 1 40654U 15025D 21279.47853298 .00103834 14191-4 48046-3 0 1793 2 40654 54.9730 233.9159 0056161 8.1548 352.0395 15.81030886 24548 XW-2A 1 40903U 15049E 21280.81875741 .00006500 00000-0 13340-3 0 9994 2 40903 97.2245 334.9473 0010914 331.8036 139.8167 15.46311154340158 XW-2C 1 40906U 15049H 21280.70834403 .00001648 00000-0 86553-4 0 9990 2 40906 97.4901 281.7003 0015002 152.1839 318.6091 15.17023902334580 XW-2D 1 40907U 15049J 21280.81193667 .00002152 00000-0 11084-3 0 9990 2 40907 97.4895 281.6381 0014689 147.8654 336.1476 15.17384974334634 LILACSAT-2 1 40908U 15049K 21280.80645895 .00001228 00000-0 69911-4 0 9991 2 40908 97.5098 279.3109 0015907 165.2562 318.6579 15.14608326334231 XW-2E 1 40909U 15049L 21280.70770976 .00002967 00000-0 14062-3 0 9997 2 40909 97.4696 285.6877 0014138 133.7596 338.6844 15.20008977334981 XW-2F 1 40910U 15049M 21280.81507123 .00003111 00000-0 14935-3 0 9994 2 40910 97.4748 284.8804 0015384 134.1811 345.1130 15.19508333334789 XW-2B 1 40911U 15049N 21280.82083512 .00002020 00000-0 10453-3 0 9996 2 40911 97.4889 282.3127 0014453 148.8025 334.2410 15.17296915334522 DCBB 1 40912U 15049P 21280.82126333 .00003501 00000-0 15546-3 0 9999 2 40912 97.4457 289.2713 0015727 106.9476 17.7816 15.22110104335289 TW-1A 1 40928U 15051D 21280.86290571 .00010598 00000-0 20827-3 0 9991 2 40928 97.0708 303.1294 0007444 232.4109 252.1426 15.47438909339061 IO-86 1 40931U 15052B 21280.38929112 .00000702 00000-0 87088-5 0 9993 2 40931 5.9922 174.0851 0012112 187.7594 172.2416 14.76692669325874 ATHENOXAT-1 1 41168U 15077C 21280.33354640 .00005157 00000-0 22243-3 0 9995 2 41168 14.9797 158.1552 0012432 292.2157 215.3598 15.16268390321781 ChubuSat-2 1 41338U 16012B 21280.15305565 .00000786 00000-0 53867-4 0 9996 2 41338 31.0020 195.5732 0013638 161.4570 198.6564 15.00629853309396 ChubuSat-3 1 41339U 16012C 21280.83047166 .00000806 00000-0 55277-4 0 9992 2 41339 31.0109 188.3807 0013208 175.7580 184.3167 15.00770943309499 Horyu-4 1 41340U 16012D 21280.40005657 .00001205 00000-0 82955-4 0 9993 2 41340 31.0041 173.2732 0013855 205.5432 154.4520 15.02057851309637 e-st@r-II 1 41459U 16025D 21280.85716126 .00003690 00000-0 17860-3 0 9999 2 41459 98.1574 63.9131 0158884 44.0676 317.3087 15.08808585299369 AAUSAT4 1 41460U 16025E 21280.38178797 .00005142 00000-0 23443-3 0 9993 2 41460 98.1555 67.8710 0144762 27.5687 333.3037 15.12206745299621 LO-87 1 41557U 16033B 21280.85147105 .00004405 00000-0 15371-3 0 9992 2 41557 97.3941 14.2012 0012464 189.6348 311.2402 15.30070273298711 NuSat2 1 41558U 16033C 21280.83132604 .00004612 00000-0 15072-3 0 9997 2 41558 97.4065 18.5345 0011490 181.6079 331.3594 15.32183837298928 Lapan A3 1 41603U 16040E 21280.83392056 .00000533 00000-0 27688-4 0 9990 2 41603 97.2447 323.4294 0012639 335.1882 142.3645 15.20119567293654 Pratham 1 41783U 16059A 21280.68663693 .00000135 00000-0 35186-4 0 9990 2 41783 97.9523 326.8782 0032231 251.1501 108.6205 14.63172599268669 TY-1 1 41844U 16066D 21280.85823212 .00002457 00000-0 97596-4 0 9992 2 41844 97.3986 289.9357 0016042 99.6312 22.4971 15.26167490273043 CAS-2T 1 41847U 16066G 21280.41354231 .00000253 00000-0 49217-4 0 9996 2 41847 98.5892 339.9427 0364027 246.0653 110.2013 14.38246444257970 EO-88 1 42017U 17008BX 21280.76836205 .00005026 00000-0 18139-3 0 9998 2 42017 97.3051 346.3408 0007419 76.0694 284.1371 15.28928776258413 CAS-4B 1 42759U 17034B 21280.77197917 .00001243 00000-0 87535-4 0 9995 2 42759 43.0185 283.5136 0007059 152.8126 194.4131 15.10421211238121 CAS-4A 1 42761U 17034D 21280.75677083 .00001148 00000-0 81686-4 0 9998 2 42761 43.0187 282.5694 0007486 154.1330 194.9603 15.10507333238129 NIUSat 1 42766U 17036B 21280.67055940 .00002902 00000-0 12526-3 0 9993 2 42766 97.2385 322.7063 0016145 135.6970 224.5563 15.23172381238296 Aalto 1 1 42775U 17036L 21280.51850652 .00002358 00000-0 10277-3 0 9995 2 42775 97.2352 322.7467 0014685 134.9847 225.2583 15.23039226238256 URSA MAIOR 1 42776U 17036M 21280.69736892 .00002567 00000-0 11066-3 0 9993 2 42776 97.2365 323.4522 0014490 133.6851 226.5590 15.23343070238309 Max Valier Sat 1 42778U 17036P 21280.66067919 .00002742 00000-0 11567-3 0 9990 2 42778 97.2432 325.5490 0013065 135.0340 225.1958 15.24038311238379 Pegasus 1 42784U 17036V 21280.40201444 .00003505 00000-0 14316-3 0 9995 2 42784 97.2384 325.8428 0012517 137.9041 222.3161 15.24962317238418 NUDATSat 1 42787U 17036Y 21280.91194629 .00005895 00000-0 22334-3 0 9993 2 42787 97.2425 329.1365 0011591 129.1465 231.0808 15.27209850238490 SUCHAI 1 1 42788U 17036Z 21280.66731948 .00004386 00000-0 17370-3 0 9995 2 42788 97.2390 327.2427 0012082 133.8533 226.3706 15.25866849238594 SKCUBE 1 42789U 17036AA 21280.38955412 .00003866 00000-0 15489-3 0 9990 2 42789 97.2386 326.6290 0011967 135.4744 224.7459 15.25549822238455 VZLUSAT 1 1 42790U 17036AB 21280.38404113 .00005452 00000-0 20704-3 0 9998 2 42790 97.2419 328.6117 0011399 130.4197 229.8039 15.27164059238569 VENTA 1 1 42791U 17036AC 21280.11345126 .00003374 00000-0 13596-3 0 9990 2 42791 97.2385 326.3601 0011653 136.6577 223.5580 15.25452120238400 Robusta 1B 1 42792U 17036AD 21280.40549849 .00004259 00000-0 16897-3 0 9991 2 42792 97.2389 327.0702 0011577 134.9796 225.2383 15.25823908238499 D-SAT 1 42794U 17036AF 21280.45278779 .00000789 00000-0 72966-4 0 9993 2 42794 97.4591 294.3859 0124395 210.9883 148.3957 14.91706796233755 TechnoSat 1 42829U 17042E 21280.43815310 .00000543 00000-0 59599-4 0 9990 2 42829 97.4514 143.9311 0015262 129.1707 231.0871 14.91358666230378 QIKCOM-1 1 42983U 98067NF 21280.88439499 .00020497 00000-0 17526-3 0 9999 2 42983 51.6366 47.1679 0003016 48.2181 311.9074 15.69442176225046 AO-91 1 43017U 17073E 21280.72539641 .00001873 00000-0 14960-3 0 9995 2 43017 97.6937 180.2026 0252690 294.1658 63.3324 14.79820135209727 EcAMSat 1 43019U 98067NG 21280.67457009 .00095543 14516-4 30781-3 0 9997 2 43019 51.6384 359.8550 0004730 11.9453 348.1665 15.90867531307972 PICSAT 1 43132U 18004X 21280.76972395 .00004603 00000-0 17926-3 0 9998 2 43132 97.4010 354.2919 0009369 162.8125 197.3433 15.26446345207819 AO-92 1 43137U 18004AC 21280.76319769 .00003516 00000-0 14052-3 0 9992 2 43137 97.3980 353.6246 0009070 164.9543 195.1967 15.25750248207773 TianYi 2 1 43155U 18008A 21280.86062410 .00002309 00000-0 13486-3 0 9994 2 43155 97.3913 342.4042 0015711 303.2249 177.2893 15.12783530205064 Zhou Enlai 1 43156U 18008B 21280.82123682 .00002304 00000-0 13607-3 0 9990 2 43156 97.3962 342.2052 0012963 303.4158 163.9509 15.12415676204995 TianYi 6 1 43158U 18008D 21280.74341844 .00001830 00000-0 11070-3 0 9990 2 43158 97.3897 340.5390 0012512 306.1023 173.0147 15.11795152204901 S-Net D 1 43186U 18014G 21280.70922983 .00000316 00000-0 32283-4 0 9991 2 43186 97.6679 186.2250 0012583 67.8523 292.4033 14.97166994201093 S-Net B 1 43187U 18014H 21280.70919135 .00000317 00000-0 32388-4 0 9994 2 43187 97.6675 186.1873 0012585 67.7683 292.4873 14.97166386201095 S-Net A 1 43188U 18014J 21280.70932791 .00000316 00000-0 32303-4 0 9994 2 43188 97.6679 186.2373 0012579 67.8895 292.3661 14.97165227201092 S-Net C 1 43189U 18014K 21280.70982551 .00000282 00000-0 29394-4 0 9992 2 43189 97.6674 186.1794 0012569 67.7299 292.5255 14.97164769199648 FMN 1 1 43192U 18015A 21280.88507213 .00008537 00000-0 30386-3 0 9997 2 43192 97.5031 56.9839 0013492 201.3687 278.3679 15.29128477204769 Shaonian Xing 1 43199U 18015H 21280.75817038 .00005751 00000-0 21087-3 0 9992 2 43199 97.4818 53.5771 0014703 211.5407 256.4447 15.28286118204794 SurfSat 1 43614U 18070B 21280.75833675 .00008999 00000-0 20047-3 0 9992 2 43614 93.0330 352.8488 0010964 290.5213 69.4867 15.43547198171981 CP-7 DAVE 1 43615U 18070C 21280.47439995 .00009081 00000-0 20470-3 0 9992 2 43615 93.0334 352.6708 0011179 292.2570 67.7500 15.43190649171927 ELFIN-B 1 43616U 18070D 21280.71146415 .00013769 00000-0 27282-3 0 9998 2 43616 93.0286 353.1181 0010598 284.7595 75.2489 15.46970236172115 ELFIN-A 1 43617U 18070E 21280.76191624 .00015599 00000-0 30229-3 0 9994 2 43617 93.0336 354.0990 0010016 280.6218 79.3912 15.47611206172141 CubeBel-1 1 43666U 18083E 21280.85762907 .00002944 00000-0 14032-3 0 9994 2 43666 97.4491 307.7993 0015596 132.9722 352.5477 15.19798811163082 Changshagaoxin 1 43669U 18083H 21280.87336028 .00002757 00000-0 13656-3 0 9993 2 43669 97.4406 304.5464 0011808 127.8411 356.5361 15.18550801162943 Ten-Koh 1 43677U 18084G 21280.76839763 .00000500 00000-0 56948-4 0 9991 2 43677 97.9341 44.1852 0016576 29.0763 331.1374 14.90542357160030 PO-101 1 43678U 18084H 21280.67081337 .00000541 00000-0 59354-4 0 9997 2 43678 97.9376 46.6217 0010988 46.4650 313.7478 14.91805137160164 IRVINE 01 1 43693U 18088D 21280.28410394 .00007619 00000-0 28719-3 0 9997 2 43693 85.0299 120.5789 0015053 338.9527 21.1096 15.26781210161496 QO-100 1 43700U 18090A 21280.53472213 .00000143 00000-0 00000-0 0 9990 2 43700 0.0121 246.7661 0002259 334.3197 13.6437 1.00272615 10492 Reaktor Hello World 1 43743U 18096AA 21280.48496695 .00004310 00000-0 15337-3 0 9999 2 43743 97.3786 357.1360 0015571 235.9933 123.9829 15.29401103159253 MinXSS-2 1 43758U 18099A 21280.72867610 .00001060 00000-0 98824-4 0 9996 2 43758 97.6567 349.5452 0016080 37.6946 322.5399 14.96215039155308 AO-95 1 43770U 18099N 21280.73144574 .00001102 00000-0 10455-3 0 9998 2 43770 97.6547 348.3865 0015404 47.1155 313.1357 14.95459186155236 RANGE-B 1 43772U 18099Q 21280.46835846 .00001417 00000-0 13185-3 0 9991 2 43772 97.6640 349.3046 0014666 35.8047 324.4154 14.95799630155205 RANGE-A 1 43773U 18099R 21280.41167167 .00000902 00000-0 86868-4 0 9998 2 43773 97.6483 347.2816 0014315 36.4187 323.8005 14.95317457155173 MOVE-II 1 43780U 18099Y 21280.71164462 .00000965 00000-0 90695-4 0 9996 2 43780 97.6570 349.0400 0014141 43.3137 316.9193 14.96146021155254 SNUSat 2 1 43782U 18099AA 21280.14430340 .00001160 00000-0 10918-3 0 9993 2 43782 97.6550 348.1932 0013474 36.6395 323.5745 14.95691835155167 SnugLite 1 43784U 18099AC 21280.47738326 .00001250 00000-0 11680-3 0 9993 2 43784 97.6514 348.2164 0015928 41.8093 318.4341 14.95830002155230 ITASat 1 1 43786U 18099AE 21280.42852548 .00000481 00000-0 48175-4 0 9998 2 43786 97.6573 348.8467 0016094 40.9177 319.3249 14.95738039155220 EAGLET 1 1 43790U 18099AJ 21280.77149089 .00000070 00000-0 11311-4 0 9996 2 43790 97.6560 349.6384 0014449 43.1478 317.0873 14.96074262155005 ESEO 1 43792U 18099AL 21280.77525671 -.00000074 00000-0 -14984-5 0 9999 2 43792 97.6522 349.1409 0014173 40.6694 319.5583 14.95800477155058 CSIM 1 43793U 18099AM 21280.46335229 .00001494 00000-0 13526-3 0 9998 2 43793 97.6559 349.4302 0013345 38.5196 321.6975 14.96810058155020 Astrocast 0.1 1 43798U 18099AS 21280.43604098 .00000353 00000-0 36220-4 0 9993 2 43798 97.6570 349.5554 0012914 25.7075 334.4785 14.96330061155261 JO-97 1 43803U 18099AX 21280.43987898 .00000434 00000-0 43729-4 0 9994 2 43803 97.6532 348.5988 0015887 40.1927 320.0466 14.96010751155230 Suomi 100 1 43804U 18099AY 21280.71533280 .00000578 00000-0 56582-4 0 9998 2 43804 97.6525 348.8246 0015850 39.5118 320.7256 14.95973334155280 Al Farabi 2 1 43805U 18099AZ 21280.63186210 .00001226 00000-0 11344-3 0 9994 2 43805 97.6560 349.0252 0016054 40.2462 319.9943 14.96237657155283 CHOMPTT 1 43855U 18104G 21280.32765543 .00003271 00000-0 13116-3 0 9995 2 43855 85.0397 219.3287 0019485 92.9111 267.4363 15.24406527156134 ISAT 1 43879U 18111D 21280.77871233 .00001427 00000-0 12941-3 0 9998 2 43879 97.6744 186.0027 0014760 85.6714 274.6165 14.96799513149855 UWE-4 1 43880U 18111E 21280.68244736 .00001336 00000-0 12092-3 0 9998 2 43880 97.6766 186.4505 0013781 88.6324 271.6477 14.97017743149872 Sparrow 1 43881U 18111F 21280.31453745 .00000552 00000-0 52788-4 0 9997 2 43881 97.6783 186.2447 0013972 85.7549 274.5270 14.97084652151828 Lume 1 1 43908U 18111AJ 21280.75344545 .00003455 00000-0 13356-3 0 9994 2 43908 97.2173 171.8106 0018335 251.8247 108.0997 15.26735215154807 FO-98 1 43933U 19003B 21280.51022674 .00025676 00000-0 86871-3 0 9994 2 43933 97.1732 317.9046 0013738 2.0434 358.0861 15.30501421151222 FO-99 1 43937U 19003F 21280.64770876 .00003917 00000-0 15250-3 0 9993 2 43937 97.1655 319.3058 0021930 338.7732 21.2595 15.26344904151377 MYSat 1 1 44045U 18092F 21280.49695611 .00012048 00000-0 29202-3 0 9994 2 44045 51.6369 238.8891 0008801 252.3615 107.6410 15.41455041148731 AstroCast 0.2 1 44083U 19018F 21280.73929073 .00003269 00000-0 14152-3 0 9997 2 44083 97.3609 339.6762 0011149 301.6207 58.3942 15.23069769139985 AISTechSat 3 1 44103U 19018AB 21280.79623392 .00002859 00000-0 11910-3 0 9994 2 44103 97.3479 340.1639 0011905 312.9331 141.6375 15.24472452140128 AISat 1 1 44104U 19018AC 21280.79739213 .00002442 00000-0 76875-4 0 9995 2 44104 97.4183 358.3495 0054812 316.5626 43.1303 15.32496973140876 Prox-1 1 44339U 19036A 21280.53741690 .00001588 00000-0 32177-3 0 9995 2 44339 24.0012 348.1859 0011113 330.8688 29.1183 14.53796710121589 Oculus-ASR 1 44348U 19036K 21280.74886066 .00026028 00000-0 33876-3 0 9998 2 44348 28.5091 104.7800 0317029 45.5074 317.0984 15.15603559125940 Armadillo 1 44352U 19036P 21280.74133839 .00048449 00000-0 56453-3 0 9993 2 44352 28.5269 73.9960 0278436 93.2870 269.9616 15.25512038126207 NO-104 1 44354U 19036R 21280.19916169 .00027851 00000-0 35337-3 0 9991 2 44354 28.5258 99.9657 0311380 50.9677 311.8209 15.17263944125944 NO-103 1 44355U 19036S 21280.64081774 .00083455 -45798-5 78862-3 0 9998 2 44355 28.5267 31.0647 0230343 162.7838 198.0727 15.38674552126665 CP9 1 44360U 19036X 21280.43310597 .00383412 43232-4 10591-2 0 9998 2 44360 28.4945 289.0750 0085275 330.5531 29.0295 15.86477896127513 Move-IIb 1 44398U 19038N 21280.87196737 .00004738 00000-0 26125-3 0 9991 2 44398 97.5933 244.4841 0022335 283.4665 76.4076 15.14262007124771 SONATE 1 44400U 19038Q 21280.90319609 .00001932 00000-0 11322-3 0 9990 2 44400 97.6015 244.2847 0023208 284.1713 75.6939 15.12804854124738 BeeSat 9 1 44412U 19038AC 21280.47014753 .00002890 00000-0 16357-3 0 9994 2 44412 97.6013 244.2218 0020285 290.1242 69.7806 15.13696859124391 JAISAT-1 1 44419U 19038F 21280.47013246 .00002920 00000-0 16312-3 0 9992 2 44419 97.6016 244.8580 0019133 287.8928 72.0217 15.14182513124743 LightSail-2 1 44420U 19036AC 21279.49644149 .00008832 00000-0 17206-2 0 9994 2 44420 24.0053 326.7400 0018654 10.9787 349.1111 14.60880835119743 Taurus 1 1 44530U 19059C 21280.81389669 .00001010 00000-0 29436-3 0 9992 2 44530 98.5516 12.1203 0014664 159.4917 200.6859 14.46216490109320 Duchifat 3 1 44854U 19089C 21280.85663320 .00001270 00000-0 10733-3 0 9995 2 44854 36.9672 155.8281 0009431 325.9300 34.0818 14.99675479 99989 OPS-SAT 1 44878U 19092F 21280.54606371 .00002829 00000-0 14671-3 0 9990 2 44878 97.4774 102.4560 0014615 135.9187 224.3214 15.16886348 99826 TO-108 1 44881U 19093C 21280.78903431 .00000179 00000-0 29659-4 0 9997 2 44881 97.9175 358.3569 0013773 290.1423 69.8311 14.81488647 97360 FloripaSat 1 1 44885U 19093G 21280.81108294 .00000656 00000-0 88451-4 0 9994 2 44885 97.9194 359.1370 0013424 297.7794 62.2056 14.82402555 97415 RS-44 1 44909U 19096E 21280.42779216 .00000001 00000-0 -41656-4 0 9990 2 44909 82.5248 38.3965 0217380 191.0554 168.5730 12.79711150 83147 SwampSat-2 1 45115U 19071E 21279.94499198 .00659211 00000-0 29124-2 0 9992 2 45115 51.6246 173.0794 0006242 202.7839 157.2887 15.82149151 94871 HO-107 1 45119U 19071J 21280.43758916 .00007585 00000-0 21800-3 0 9993 2 45119 51.6410 213.5548 0010503 339.3692 20.6866 15.36777453 94381 Phoenix 1 45258U 98067RB 21280.30332674 .00019614 00000-0 24801-3 0 9994 2 45258 51.6368 128.1886 0004331 305.4270 54.6318 15.59522015 92644 AztechSat-1 1 45261U 98067RE 21280.51497335 .00104349 00000-0 62561-3 0 9992 2 45261 51.6309 106.2347 0004462 299.9498 60.1059 15.76972548 92986 QARMAN 1 45263U 98067RG 21280.11452059 .00058571 00000-0 50639-3 0 9992 2 45263 51.6346 117.9050 0003948 306.9188 53.1446 15.68610836 92827 Quetzal 1 1 45598U 98067RL 21279.81775593 .00047662 00000-0 46900-3 0 9994 2 45598 51.6367 125.7212 0000889 138.2284 221.8779 15.65501347 81961 BY70-2 1 45857U 20042B 21280.75038888 .00002341 00000-0 33630-3 0 9995 2 45857 97.9781 355.3210 0010786 203.9773 156.0924 14.77362263 68129 UPMSat 2 1 46276U 20061E 21280.78292952 .00001337 00000-0 71684-4 0 9995 2 46276 97.4230 352.2602 0001553 38.2288 321.9055 15.16674524 60560 AmicalSat 1 46287U 20061R 21280.72003982 .00001606 00000-0 10066-3 0 9999 2 46287 97.4783 351.4877 0004206 78.9485 281.2218 15.10739302 60297 SALSAT 1 46495U 20068K 21280.60192252 .00000340 00000-0 29371-4 0 9997 2 46495 97.6998 217.4720 0018692 55.6183 304.6804 15.03578791 56186 BY70-3 1 46839U 20079N 21280.90402304 .00006629 00000-0 19970-3 0 9995 2 46839 97.2317 352.5357 0007840 151.8907 324.6011 15.34630976 51446 SPOC 1 46921U 98067RR 21280.30532018 .00018556 00000-0 25686-3 0 9992 2 46921 51.6395 137.2729 0002581 144.4368 215.6796 15.57147115 52279 Bobcat-1 1 46922U 98067RS 21280.08972877 .00036072 00000-0 43532-3 0 9992 2 46922 51.6400 135.1132 0002466 161.0780 199.0305 15.60392332 52231 Neutron-1 1 46923U 98067RT 21280.33008802 .00019086 00000-0 26529-3 0 9992 2 46923 51.6394 137.4348 0002582 155.1861 204.9255 15.57014646 52304 CAPE 3 1 47309U 21002A 21280.39909397 .00003130 00000-0 14739-3 0 9994 2 47309 60.6856 233.2957 0045902 106.9880 253.6244 15.21261984 39916 AO-109 1 47311U 21002C 21280.31146464 .00002523 00000-0 11894-3 0 9991 2 47311 60.6856 232.3349 0040787 104.7656 255.7955 15.22102469 39899 MiTEE 1 1 47314U 21002F 21280.32942759 .00005906 00000-0 24793-3 0 9996 2 47314 60.6853 230.0828 0042238 96.9546 263.6348 15.23929255 39951 ExoCube 2 1 47319U 21002L 21280.44087172 .00002592 00000-0 12311-3 0 9994 2 47319 60.6839 232.3690 0041486 106.8523 253.7119 15.21723919 39876 UVSQ-SAT 1 47438U 21006AB 21280.72592206 .00002181 00000-0 12543-3 0 9991 2 47438 97.4755 339.8881 0014177 73.3109 286.9677 15.13442517 39031 YUSAT 1 1 47439U 21006AC 21280.72719114 .00002476 00000-0 14171-3 0 9997 2 47439 97.4759 339.8944 0014017 73.6842 286.5929 15.13482837 39031 SOMP 2b 1 47445U 21006AJ 21280.55424733 .00001808 00000-0 10513-3 0 9999 2 47445 97.4728 339.5632 0013818 77.2067 283.0707 15.13266220 39001 IDEASSat 1 47458U 21006AX 21280.51115061 .00001949 00000-0 11351-3 0 9997 2 47458 97.4819 339.7767 0012946 75.7079 284.5589 15.13128282 38990 RSP-01 1 47925U 98067SB 21280.34825857 .00020235 00000-0 30789-3 0 9994 2 47925 51.6406 143.5414 0002407 113.5815 246.5429 15.54504140 32163 TAUSAT-1 1 47926U 98067SC 21280.32499583 .00024555 00000-0 35521-3 0 9994 2 47926 51.6389 142.6279 0003229 111.3214 248.8122 15.55758868 32169 Tsuru 1 47927U 98067SD 21280.05138346 .00019072 00000-0 29547-3 0 9991 2 47927 51.6408 145.3080 0002481 108.5850 251.5410 15.54050569 32113 STARS-EC 1 47928U 98067SE 21280.77204374 .00028497 00000-0 41452-3 0 9996 2 47928 51.6395 141.1124 0006037 169.1545 190.9577 15.55508060 32213 Maya-2 1 47929U 98067SF 21279.98319978 .00018862 00000-0 29215-3 0 9993 2 47929 51.6408 145.6018 0002511 104.7146 255.4123 15.54065216 32062 OPUSAT-II 1 47930U 98067SG 21280.78623336 .00028273 00000-0 40237-3 0 9995 2 47930 51.6398 140.4691 0002204 119.0673 241.0540 15.56122205 32243 GuaraniSat-1 1 47931U 98067SH 21280.04548287 .00019250 00000-0 29766-3 0 9995 2 47931 51.6410 145.2706 0002530 104.6970 255.4301 15.54096197 32119 CubeSX-Sirius-HSE 1 47951U 21022V 21280.75099579 .00000933 00000-0 68262-4 0 9990 2 47951 97.5453 180.5965 0020772 291.1858 68.7170 15.05867583 29959 CubeSX-HSE 1 47952U 21022W 21280.74581686 .00001184 00000-0 85359-4 0 9990 2 47952 97.5446 180.5978 0020729 290.8652 69.0366 15.05907959 29959 KSU-Cubesat 1 47954U 21022Y 21280.66860356 .00002042 00000-0 14371-3 0 9996 2 47954 97.5469 180.5561 0020107 290.3870 69.5198 15.06011369 29669 GRBAlpha 1 47959U 21022AD 21280.74602388 .00001208 00000-0 86970-4 0 9997 2 47959 97.5452 180.6111 0020581 291.5325 68.3724 15.05910556 28770 Orbicraft-Zorkiy 1 47960U 21022AE 21280.73704556 .00002044 00000-0 14396-3 0 9999 2 47960 97.5468 180.6533 0020280 290.8785 69.0292 15.05991368 29460 STECCO 1 47962U 21022AG 21280.81453663 .00002900 00000-0 19672-3 0 9993 2 47962 97.5439 180.9546 0015470 287.3741 159.0948 15.07125713 28793 DO-111 1 47963U 21022AH 21280.66886158 .00005495 00000-0 36080-3 0 9990 2 47963 97.5468 180.9896 0017698 283.9494 75.9765 15.07917536 28802 MO-110 1 47964U 21022AJ 21280.69717644 .00001922 00000-0 13072-3 0 9994 2 47964 97.5451 180.9398 0018080 283.7179 76.2036 15.07401083 28783 FEES 1 48082U 21022AL 21280.29047943 .00002931 00000-0 19928-3 0 9997 2 48082 97.5462 180.4364 0014432 282.6694 77.2920 15.07037663 28425 RamSat 1 48850U 98067SL 21280.88093546 .00013418 00000-0 22992-3 0 9995 2 48850 51.6409 144.0679 0004566 188.6763 171.4148 15.51531391 17955 MO-112 1 48868U 98067SP 21280.33137528 .00026115 00000-0 41404-3 0 9990 2 48868 51.6400 146.4009 0003698 183.6065 176.4899 15.53199347 16650 TUBIN 1 48900U 21059X 21280.73091307 .00001233 00000-0 74880-4 0 9991 2 48900 97.5225 47.9757 0008931 253.8247 213.7532 15.12336148 15704 CUTE 1 49263U 21088D 21280.46749795 .00001888 00000-0 14991-3 0 9999 2 49263 97.6238 348.3217 0017326 215.9073 144.0974 15.01587396 1448 OBJECT SR 1 49272U 98067SR 21280.87561790 .00014036 00000-0 25516-3 0 9996 2 49272 51.6438 145.5215 0006263 107.0692 253.0985 15.49798426 320 OBJECT SS 1 49273U 98067SS 21280.61795464 .00005207 00000-0 10000-3 0 9998 2 49273 51.6457 146.7983 0005500 99.1335 262.3654 15.49752821 274 OBJECT ST 1 49274U 98067ST 21280.61774353 .00017794 00000-0 32197-3 0 9998 2 49274 51.6425 146.8003 0005778 99.7987 260.3745 15.49729747 281 CUAVA-1 1 49275U 98067SU 21280.81110626 .00034142 00000-0 60551-3 0 9999 2 49275 51.6435 145.8528 0007093 117.5665 242.6046 15.49889426 264 /EX
